sat.trackr.live / text

‹ back to catalog

STARLINK-37789

NORAD 69495 · 2026-131T

PAYLOAD ACTIVE UNKNOWN

§ Identity

Operator
Country
US
Launch date
2026-06-11
Launch site
AFWTR
Launch vehicle
Mass (kg)
RCS (m²)

Purposes: comms

External: N2YO · Heavens-Above · Gunter

§ Orbital elements

Epoch: 2026-09-19T23:59:00.606048Z

Period
93.91 min
Inclination
97.2842°
Eccentricity
0.0001550
Mean motion
15.33443797 rev/d
Perigee alt
464.5 km
Apogee alt
466.6 km
Semi-major
6,843.7 km
B*
3.5689e-4
RAAN
283.9144°
Arg perigee
89.9697°
Mean anomaly
270.1723°
Rev number
1,556

§ Raw data

STARLINK-377891 69495U 26131T   26262.99931257  .00011464  00000+0  35689-3 0  99982 69495  97.2842 283.9144 0001550  89.9697 270.1723 15.33443797 15562

JSON: /api/v1/satellites/69495 · /tle

For live sub-satellite position, see the globe view (requires WebGL).

§ Visibility from observer

Set your observer location to see the next 7 days of passes ≥ 10°. The values pass through the URL so the page stays shareable.

No JS? Fill the form by hand. The geolocation button needs JavaScript.